Home   Weather   Mumbai   Past weeks
Flag for India

Past Weather in Mumbai, Maharashtra, India — Yesterday and Last 2 Weeks

Now
84 °F

Thundershowers. Broken clouds.


Feels Like: 94 °F
Forecast: 86 / 83 °F
Wind: 8 mph from North

Location: Mumbai / Santacruz

Current Time: Jun 24, 2019 at 2:34:54 pm

Latest Report: Jun 24, 2019 at 1:30 pm


Visibility: 2 mi

Pressure: 29.68 "Hg

Humidity: 79%

Dew Point: 77 °F

Location of MumbaiLocation

Past Weather in Mumbai — Graph

°F

Mumbai Temperature Yesterday

Maximum temperature yesterday: 90 °F (at 11:30 am)
Minimum temperature yesterday: 86 °F (at 12:00 am)
Average temperature yesterday: 87 °F

High & Low Weather Summary for the Past Weeks

 TemperatureHumidityPressure
High95 °F (Jun 11, 12:00 pm)100% (Jun 14, 10:00 pm)29.77 "Hg (Jun 14, 10:00 pm)
Low77 °F (Jun 10, 10:30 pm)59% (Jun 10, 2:30 pm)29.45 "Hg (Jun 11, 5:30 pm)
Average86 °F78%29.63 "Hg
* Reported Jun 9 12:30 pm — Jun 24 1:00 pm, Mumbai. Weather by CustomWeather, © 2019

Note: Actual official high and low records may vary slightly from our data, if they occured in-between our weather recording intervals... More about our weather records

Advertising

Mumbai Weather History for the Previous 24 Hours

Scroll right to see more
 ConditionsComfort  
Time TempWeatherWind HumidityBarometerVisibility
1:00 pm
Mon, Jun 24
84 °FThunderstorms. Broken clouds.7 mph79%29.68 "Hg2 mi
12:30 pm84 °FScattered showers. Broken clouds.10 mph84%29.68 "Hg2 mi
12:00 pm86 °FScattered showers. Broken clouds.13 mph75%29.68 "Hg2 mi
11:30 am86 °FBroken clouds.8 mph79%29.68 "Hg2 mi
11:00 am86 °FBroken clouds.8 mph79%29.68 "Hg2 mi
10:30 am84 °FBroken clouds.10 mph84%29.68 "Hg2 mi
10:00 am84 °FLight rain. Broken clouds.8 mph84%29.68 "Hg2 mi
9:30 am88 °FBroken clouds.5 mph70%29.68 "Hg2 mi
9:00 am86 °FBroken clouds.6 mph79%29.68 "Hg2 mi
8:30 am88 °FBroken clouds.3 mph66%29.68 "Hg2 mi
8:00 am86 °FScattered showers. Broken clouds.5 mph66%29.68 "Hg2 mi
7:30 am86 °FScattered showers. Broken clouds.6 mph66%29.65 "Hg2 mi
7:00 am86 °FScattered showers. Scattered clouds.8 mph79%29.65 "Hg2 mi
6:30 am86 °FPassing clouds.6 mph75%29.65 "Hg2 mi
6:00 am86 °FPassing clouds.9 mph75%29.65 "Hg2 mi
5:30 am84 °FPassing clouds.6 mph79%29.62 "Hg2 mi
5:00 am84 °FPassing clouds.5 mph74%29.62 "Hg2 mi
4:30 am86 °FPassing clouds.10 mph70%29.62 "Hg2 mi
4:00 am86 °FPassing clouds.6 mph75%29.59 "Hg2 mi
3:30 am86 °FPassing clouds.7 mph75%29.62 "Hg2 mi
3:00 am86 °FPassing clouds.9 mph75%29.59 "Hg2 mi
2:30 am86 °FPassing clouds.10 mph75%29.59 "Hg2 mi
2:00 am86 °FPassing clouds.9 mph79%29.59 "Hg2 mi
1:30 am86 °FPassing clouds.9 mph79%29.62 "Hg2 mi
1:00 am86 °FPassing clouds.7 mph75%29.62 "Hg2 mi
12:30 am86 °FPassing clouds.7 mph75%29.62 "Hg2 mi
12:00 am86 °FPassing clouds.8 mph75%29.65 "Hg2 mi
11:30 pm
Sun, Jun 23
86 °FPassing clouds.9 mph75%29.65 "Hg2 mi
11:00 pm86 °FPassing clouds.6 mph75%29.65 "Hg2 mi
10:30 pm86 °FPassing clouds.8 mph75%29.65 "Hg2 mi
10:00 pm86 °FPassing clouds.8 mph75%29.65 "Hg2 mi
9:30 pm88 °FPassing clouds.8 mph70%29.62 "Hg2 mi
9:00 pm88 °FPassing clouds.8 mph70%29.62 "Hg2 mi
8:30 pm88 °FPassing clouds.10 mph70%29.62 "Hg2 mi
8:00 pm88 °FPassing clouds.9 mph70%29.62 "Hg2 mi
7:30 pm88 °FScattered clouds.9 mph70%29.59 "Hg3 mi
7:00 pm88 °FScattered clouds.9 mph70%29.59 "Hg4 mi
6:30 pm88 °FScattered clouds.12 mph70%29.59 "Hg4 mi
6:00 pm88 °FScattered clouds.15 mph70%29.56 "Hg4 mi
5:30 pm90 °FScattered clouds.12 mph67%29.56 "Hg4 mi
5:00 pm90 °FScattered clouds.13 mph67%29.56 "Hg4 mi
4:30 pm90 °FScattered clouds.14 mph67%29.56 "Hg4 mi
4:00 pm90 °FPartly sunny.14 mph67%29.56 "Hg4 mi
3:30 pm90 °FPartly sunny.13 mph67%29.56 "Hg4 mi
3:00 pm90 °FPartly sunny.14 mph63%29.59 "Hg4 mi
2:30 pm90 °FBroken clouds.15 mph63%29.59 "Hg3 mi
2:00 pm90 °FBroken clouds.15 mph67%29.59 "Hg2 mi
Weather by CustomWeather, © 2019

See weather overview